This demonstration page uses our WeatherBlox Daily Observations layout. Learn more.

Left ArrowRight Arrow

39.51506, -84.39828

Hourly Observations for August 17, 2020

Temp ( °F °C ) Dew Point ( °F °C ) Humidity (%) Winds ( mph kmh ) Pressure ( in mb ) Visibility ( mi km ) Precip ( " mm )
12:15 am 00:15 Clear 65 18.1 60 15.4 84 84 Calm 29.99 1016 10 16.0934 0 0
12:35 am 00:35 Clear 64 17.6 60 15.3 86 86 Calm 30 1016 10 16.0934 0 0
12:55 am 00:55 Clear 67 19.3 60 15.5 79 79 Calm 30 1016 10 16.0934 0 0
1:15 am 01:15 Clear 65 18.2 60 15.3 83 83 Calm 30 1016 10 16.0934 0 0
1:35 am 01:35 Clear 63 17.4 59 14.9 85 85 Calm 30.01 1016 10 16.0934 0 0
1:55 am 01:55 Clear 65 18.2 59 15.1 82 82 Calm 30.01 1016 10 16.0934 0 0
2:15 am 02:15 Clear 64 17.6 59 15.1 85 85 NE 3 6 30 1016 10 16.0934 0 0
2:35 am 02:35 Clear 62 16.6 60 15.3 92 92 Calm 30.01 1016 10 16.0934 0 0
2:55 am 02:55 Clear 63 17 59 14.8 87 87 Calm 30 1016 10 16.0934 0 0
3:15 am 03:15 Clear 61 16.2 59 15 93 93 Calm 30.01 1016 10 16.0934 0 0
3:35 am 03:35 Clear 62 16.8 60 15.3 91 91 Calm 30.01 1016 10 16.0934 0 0
3:55 am 03:55 Clear 60 15.6 59 14.8 95 95 Calm 30.02 1016 10 16.0934 0 0
4:15 am 04:15 Clear 60 15.7 59 15 96 96 Calm 30.01 1016 10 16.0934 0 0
4:35 am 04:35 Clear 59 15.2 59 15 99 99 Calm 30.03 1017 10 16.0934 0 0
4:55 am 04:55 Clear 61 16.1 60 15.7 97 97 Calm 30.02 1017 10 16.0934 0 0
5:15 am 05:15 Mostly Cloudy 60 15.7 60 15.3 97 97 Calm 30.02 1017 10 16.0934 0 0
5:35 am 05:35 Partly Cloudy 60 15.8 60 15.4 97 97 Calm 30.02 1017 10 16.0934 0 0
5:55 am 05:55 Partly Cloudy 61 16 60 15.5 97 97 Calm 30.02 1017 10 16.0934 0 0
6:15 am 06:15 Clear 60 15.4 60 15.3 99 99 Calm 30.03 1017 10 16.0934 0 0
6:35 am 06:35 Partly Cloudy 59 15.1 59 15 99 99 Calm 30.04 1017 10 16.0934 0 0
6:55 am 06:55 Sunny 58 14.6 58 14.6 100 100 Calm 30.03 1017 10 16.0934 0 0
7:15 am 07:15 Sunny 59 15 N/A N/A Calm 30.03 1017 10 16.0934 0 0
7:35 am 07:35 Sunny 59 15 N/A N/A Calm 30.04 1017 10 16.0934 0 0
7:55 am 07:55 Sunny 61 16.3 61 16 98 98 Calm 30.03 1017 10 16.0934 0 0
8:15 am 08:15 Sunny 64 17.5 62 16.8 96 96 WSW 3 6 30.03 1017 10 16.0934 0 0
8:35 am 08:35 Sunny 65 18.4 61 16.3 88 88 Calm 30.03 1017 10 16.0934 0 0
8:55 am 08:55 Sunny 68 20 61 16 78 78 Calm 30.02 1017 10 16.0934 0 0
9:15 am 09:15 Sunny 70 21.1 61 16 73 73 Calm 30.02 1017 10 16.0934 0 0
9:35 am 09:35 Sunny 70 21.2 62 16.9 77 77 Calm 30.02 1017 10 16.0934 0 0
9:55 am 09:55 Sunny 71 21.9 63 17.1 74 74 Calm 30.02 1017 10 16.0934 0 0
10:15 am 10:15 Sunny 73 22.5 63 17.1 72 72 SW 5 7 30.02 1017 10 16.0934 0 0
10:35 am 10:35 Sunny 74 23.4 64 17.8 71 71 WSW 6 9 30.02 1016 10 16.0934 0 0
10:55 am 10:55 Sunny 76 24.2 65 18.2 69 69 SW 6 9 30.01 1016 10 16.0934 0 0
11:15 am 11:15 Sunny 78 25.5 65 18.5 65 65 SW 9 15 30.01 1016 10 16.0934 0 0
11:35 am 11:35 Sunny 78 25.8 67 19.2 67 67 SSW 10 17 30.01 1016 10 16.0934 0 0
11:55 am 11:55 Sunny 80 26.4 67 19.2 65 65 SW 9 15 30 1016 10 16.0934 0 0
12:15 pm 12:15 Sunny 81 27 68 20 66 66 WSW 9 15 30 1016 10 16.0934 0 0
12:35 pm 12:35 Sunny 82 27.5 65 18.4 58 58 WSW 6 9 30 1016 10 16.0934 0 0
12:55 pm 12:55 Sunny 82 28 66 19 58 58 NW 9 15 29.99 1015 10 16.0934 0 0
1:15 pm 13:15 Partly Cloudy N/A N/A N/A W 8 13 N/A 10 16.0934 0 0
1:35 pm 13:35 Partly Cloudy 82 28 61 16 48 48 WNW 9 15 29.99 1015 10 16.0934 0 0
1:55 pm 13:55 Partly Cloudy N/A N/A N/A W 12 19 N/A 10 16.0934 0 0
2:15 pm 14:15 Sunny 84 29 59 15 43 43 WNW 10 17 29.98 1015 10 16.0934 0 0
2:35 pm 14:35 Sunny N/A N/A N/A W 9 15 N/A 10 16.0934 0 0
2:55 pm 14:55 Sunny N/A N/A N/A WNW 8 13 N/A 10 16.0934 0 0
3:15 pm 15:15 Sunny N/A N/A N/A WNW 10 17 N/A 10 16.0934 0 0
3:35 pm 15:35 Cloudy 81 27 61 16 51 51 W 9 15 29.98 1015 10 16.0934 0 0
3:55 pm 15:55 Mostly Cloudy 81 27 61 16 51 51 W 6 9 29.98 1015 10 16.0934 0 0
4:15 pm 16:15 Cloudy 79 26 61 16 54 54 W 8 13 29.97 1015 10 16.0934 0 0
4:35 pm 16:35 Cloudy 79 26 63 17 58 58 WNW 5 7 29.96 1015 10 16.0934 0 0
4:55 pm 16:55 Cloudy 79 26 63 17.1 58 58 WNW 3 6 29.96 1015 10 16.0934 0 0
5:15 pm 17:15 Mostly Cloudy 79 25.9 63 17.3 59 59 W 6 9 29.96 1015 10 16.0934 0 0
5:35 pm 17:35 Cloudy 78 25.8 63 17.1 59 59 WNW 7 11 29.96 1015 10 16.0934 0 0
5:55 pm 17:55 Cloudy 78 25.4 64 17.5 62 62 W 3 6 29.96 1015 10 16.0934 0 0
6:15 pm 18:15 Cloudy 78 25.3 63 17.4 62 62 Calm 29.96 1015 10 16.0934 0 0
6:35 pm 18:35 Mostly Cloudy 77 25.1 64 17.6 63 63 Calm 29.95 1014 10 16.0934 0 0
6:55 pm 18:55 Cloudy 77 24.8 64 17.6 64 64 Calm 29.96 1015 10 16.0934 0 0
7:15 pm 19:15 Cloudy 77 24.9 63 17.2 62 62 NNW 3 6 29.95 1014 10 16.0934 0 0
7:35 pm 19:35 Partly Cloudy 76 24.6 62 16.4 60 60 Calm 29.95 1014 10 16.0934 0 0
7:55 pm 19:55 Partly Cloudy 76 24.4 62 16.8 63 63 Calm 29.96 1015 10 16.0934 0 0
8:15 pm 20:15 Mostly Cloudy 75 24.1 62 16.7 63 63 Calm 29.97 1015 10 16.0934 0 0
8:35 pm 20:35 Mostly Cloudy 74 23.5 63 17.1 67 67 Calm 29.97 1015 10 16.0934 0 0
8:55 pm 20:55 Partly Cloudy 73 22.8 63 17.4 72 72 Calm 29.97 1015 10 16.0934 0 0
9:15 pm 21:15 Partly Cloudy 73 22.6 63 17.1 71 71 Calm 29.97 1015 10 16.0934 0 0
9:35 pm 21:35 Mostly Cloudy 71 21.4 65 18.3 83 83 Calm 29.98 1015 10 16.0934 0 0
9:55 pm 21:55 Partly Cloudy 69 20.7 66 18.9 89 89 Calm 29.98 1015 10 16.0934 0 0
10:15 pm 22:15 Partly Cloudy 68 20.2 66 18.8 92 92 Calm 29.98 1015 10 16.0934 0 0
10:35 pm 22:35 Clear 69 20.4 65 18.4 88 88 Calm 29.98 1015 10 16.0934 0 0
10:55 pm 22:55 Clear 68 19.9 65 18.6 92 92 Calm 29.98 1015 10 16.0934 0 0
11:15 pm 23:15 Clear 68 20.1 65 18.6 91 91 SSW 5 7 29.98 1015 10 16.0934 0 0
11:35 pm 23:35 Partly Cloudy 68 20.2 64 17.8 86 86 Calm 29.98 1015 10 16.0934 0 0
11:55 pm 23:55 Clear 67 19.6 65 18.1 91 91 Calm 29.99 1015 10 16.0934 0 0

Powered by AerisWeather